QPF
0.06 0.07 0.08 0.07 0.07 0.08 0.12 0.16 0.17 0.21 0.19 0.15 0.10 0.09 0.11 0.09 0.10 0.13 0.12 0.11 0.09 0.07 0.05 0.05 0.05 0.05 0.07 0.07 0.07 0.09 0.09 0.09 0.08 0.08 0.08 0.09 0.11 0.13 0.14 0.13 0.12 0.11 0.09
0.05 0.06 0.06 0.08 0.08 0.08 0.10 0.13 0.13 0.18 0.18 0.17 0.12 0.11 0.09 0.10 0.09 0.11 0.10 0.09 0.08 0.07 0.06 0.06 0.05 0.05 0.06 0.06 0.05 0.06 0.06 0.07 0.06 0.07 0.09 0.11 0.11 0.13 0.16 0.13 0.12 0.13 0.10
0.06 0.07 0.08 0.09 0.10 0.12 0.11 0.09 0.09 0.13 0.13 0.13 0.13 0.10 0.10 0.08 0.08 0.10 0.10 0.09 0.08 0.06 0.06 0.05 0.05 0.05 0.06 0.05 0.05 0.05 0.05 0.05 0.06 0.07 0.08 0.08 0.09 0.10 0.12 0.12 0.09 0.09 0.08
0.05 0.07 0.08 0.09 0.09 0.10 0.09 0.08 0.10 0.12 0.13 0.13 0.13 0.12 0.10 0.09 0.09 0.11 0.11 0.10 0.08 0.06 0.06 0.04 0.04 0.04 0.04 0.04 0.05 0.06 0.06 0.05 0.06 0.07 0.07 0.07 0.07 0.08 0.10 0.10 0.08 0.07 0.07
0.04 0.06 0.08 0.10 0.09 0.08 0.08 0.08 0.11 0.12 0.13 0.13 0.10 0.07 0.05 0.04 0.04 0.06 0.07 0.08 0.09 0.08 0.07 0.06 0.05 0.04 0.03 0.03 0.04 0.05 0.05 0.05 0.06 0.08 0.08 0.08 0.08 0.08 0.08 0.08 0.07 0.08 0.07
0.04 0.04 0.07 0.06 0.07 0.08 0.09 0.09 0.09 0.10 0.11 0.09 0.06 0.06 0.05 0.04 0.05 0.05 0.05 0.07 0.08 0.07 0.07 0.08 0.10 0.07 0.06 0.04 0.04 0.04 0.05 0.04 0.05 0.07 0.07 0.06 0.05 0.05 0.06 0.05 0.06 0.07 0.08
0.05 0.05 0.06 0.07 0.06 0.08 0.09 0.08 0.10 0.10 0.10 0.09 0.09 0.09 0.07 0.06 0.07 0.06 0.05 0.07 0.07 0.06 0.06 0.06 0.08 0.08 0.07 0.06 0.05 0.05 0.06 0.05 0.05 0.05 0.06 0.05 0.06 0.05 0.05 0.05 0.05 0.05 0.05
0.06 0.06 0.08 0.07 0.07 0.09 0.10 0.11 0.12 0.14 0.13 0.11 0.12 0.12 0.10 0.10 0.09 0.05 0.05 0.05 0.05 0.05 0.05 0.05 0.08 0.09 0.07 0.08 0.07 0.06 0.06 0.07 0.06 0.05 0.04 0.05 0.04 0.04 0.05 0.05 0.05 0.05 0.05
0.06 0.07 0.08 0.09 0.10 0.10 0.12 0.12 0.11 0.12 0.11 0.13 0.12 0.11 0.10 0.09 0.08 0.06 0.05 0.05 0.04 0.05 0.05 0.04 0.04 0.04 0.04 0.06 0.06 0.06 0.06 0.07 0.06 0.05 0.04 0.04 0.03 0.04 0.05 0.06 0.07 0.06 0.05
0.08 0.09 0.10 0.10 0.10 0.11 0.12 0.10 0.12 0.12 0.11 0.10 0.11 0.09 0.09 0.09 0.09 0.08 0.06 0.05 0.05 0.05 0.03 0.02 0.01 0.02 0.02 0.05 0.05 0.04 0.04 0.05 0.06 0.05 0.04 0.04 0.04 0.05 0.07 0.08 0.08 0.07 0.05
0.07 0.08 0.09 0.08 0.08 0.11 0.12 0.11 0.12 0.10 0.09 0.08 0.07 0.06 0.08 0.10 0.11 0.11 0.08 0.07 0.07 0.06 0.04 0.03 0.02 0.02 0.03 0.04 0.05 0.03 0.04 0.04 0.04 0.03 0.03 0.04 0.05 0.06 0.07 0.08 0.08 0.06 0.05
0.06 0.08 0.10 0.07 0.08 0.11 0.11 0.09 0.09 0.09 0.10 0.08 0.05 0.06 0.08 0.09 0.11 0.12 0.10 0.09 0.09 0.07 0.06 0.05 0.05 0.03 0.04 0.04 0.04 0.05 0.05 0.04 0.04 0.04 0.05 0.05 0.05 0.09 0.10 0.10 0.09 0.07 0.04
0.05 0.07 0.07 0.07 0.07 0.08 0.09 0.10 0.10 0.11 0.12 0.11 0.08 0.08 0.09 0.08 0.09 0.10 0.10 0.09 0.08 0.08 0.07 0.05 0.04 0.04 0.05 0.04 0.05 0.05 0.03 0.03 0.02 0.02 0.03 0.05 0.06 0.09 0.08 0.08 0.08 0.06 0.04
0.03 0.04 0.04 0.06 0.05 0.05 0.06 0.09 0.10 0.10 0.11 0.11 0.11 0.11 0.09 0.08 0.08 0.07 0.07 0.07 0.07 0.08 0.08 0.07 0.05 0.04 0.04 0.04 0.05 0.05 0.03 0.03 0.02 0.01 0.01 0.01 0.02 0.05 0.07 0.09 0.07 0.04 0.03
0.03 0.04 0.04 0.05 0.05 0.05 0.05 0.07 0.09 0.09 0.10 0.09 0.11 0.09 0.06 0.05 0.04 0.05 0.06 0.07 0.07 0.08 0.09 0.08 0.06 0.04 0.03 0.04 0.05 0.03 0.02 0.02 0.01 0.01 0.01 0.00 0.01 0.02 0.03 0.05 0.05 0.04 0.03
0.03 0.03 0.03 0.03 0.04 0.04 0.05 0.06 0.05 0.05 0.05 0.05 0.08 0.08 0.08 0.08 0.07 0.06 0.06 0.07 0.08 0.09 0.09 0.09 0.07 0.05 0.05 0.03 0.04 0.03 0.03 0.03 0.02 0.02 0.01 0.01 0.02 0.02 0.02 0.03 0.03 0.03 0.02
0.04 0.04 0.04 0.04 0.04 0.03 0.03 0.03 0.04 0.04 0.05 0.05 0.06 0.07 0.06 0.08 0.09 0.08 0.07 0.06 0.07 0.07 0.08 0.10 0.09 0.07 0.08 0.07 0.06 0.05 0.03 0.03 0.03 0.02 0.02 0.02 0.03 0.03 0.03 0.03 0.03 0.03 0.02
0.04 0.06 0.06 0.06 0.05 0.05 0.04 0.03 0.02 0.03 0.04 0.04 0.04 0.05 0.04 0.06 0.08 0.08 0.08 0.06 0.06 0.07 0.06 0.07 0.09 0.09 0.08 0.08 0.07 0.08 0.05 0.04 0.03 0.03 0.02 0.02 0.03 0.03 0.03 0.03 0.02 0.02 0.01
0.06 0.07 0.07 0.06 0.06 0.07 0.06 0.05 0.04 0.04 0.03 0.04 0.03 0.03 0.03 0.05 0.06 0.07 0.07 0.07 0.06 0.08 0.09 0.08 0.08 0.09 0.08 0.07 0.07 0.06 0.06 0.07 0.03 0.03 0.03 0.02 0.03 0.03 0.03 0.03 0.02 0.01 0.01
0.04 0.05 0.05 0.05 0.06 0.07 0.06 0.05 0.05 0.05 0.05 0.04 0.04 0.03 0.02 0.03 0.04 0.05 0.05 0.06 0.07 0.07 0.08 0.08 0.09 0.08 0.08 0.08 0.08 0.07 0.07 0.06 0.04 0.04 0.06 0.06 0.04 0.03 0.02 0.02 0.01 0.01 0.00
0.02 0.02 0.03 0.04 0.04 0.04 0.03 0.03 0.04 0.04 0.04 0.04 0.04 0.04 0.03 0.02 0.02 0.02 0.02 0.03 0.05 0.05 0.05 0.06 0.06 0.07 0.08 0.09 0.10 0.09 0.08 0.08 0.07 0.06 0.08 0.05 0.03 0.03 0.03 0.03 0.02 0.01 0.00
0.01 0.01 0.02 0.02 0.02 0.01 0.01 0.02 0.03 0.03 0.04 0.04 0.04 0.04 0.04 0.03 0.03 0.03 0.02 0.02 0.03 0.04 0.05 0.06 0.06 0.07 0.07 0.08 0.09 0.08 0.09 0.11 0.09 0.06 0.06 0.05 0.05 0.05 0.05 0.04 0.04 0.03 0.02
0.02 0.02 0.03 0.03 0.03 0.03 0.03 0.03 0.03 0.03 0.03 0.04 0.03 0.03 0.04 0.03 0.04 0.04 0.05 0.04 0.03 0.03 0.05 0.06 0.06 0.06 0.07 0.08 0.10 0.08 0.08 0.08 0.07 0.07 0.07 0.06 0.06 0.07 0.07 0.06 0.06 0.06 0.04
0.02 0.02 0.03 0.05 0.07 0.06 0.06 0.04 0.03 0.03 0.03 0.03 0.03 0.03 0.03 0.03 0.03 0.04 0.04 0.05 0.05 0.05 0.05 0.05 0.05 0.05 0.06 0.08 0.08 0.08 0.10 0.11 0.10 0.09 0.08 0.07 0.06 0.06 0.07 0.08 0.08 0.08 0.06
0.02 0.02 0.02 0.03 0.05 0.05 0.07 0.07 0.05 0.03 0.03 0.02 0.02 0.03 0.03 0.03 0.02 0.02 0.03 0.04 0.06 0.06 0.06 0.06 0.05 0.05 0.06 0.08 0.09 0.09 0.09 0.11 0.09 0.08 0.08 0.08 0.07 0.06 0.08 0.08 0.08 0.08 0.07
0.02 0.02 0.02 0.02 0.02 0.03 0.03 0.04 0.07 0.06 0.04 0.02 0.02 0.03 0.03 0.02 0.01 0.01 0.01 0.03 0.04 0.05 0.07 0.07 0.06 0.06 0.07 0.08 0.08 0.08 0.08 0.09 0.08 0.08 0.08 0.09 0.08 0.09 0.10 0.09 0.09 0.10 0.09
MSLP
1013.37 1013.52 1013.61 1013.65 1013.68 1013.73 1013.82 1013.92 1014.03 1014.11 1014.14 1014.09 1013.96 1013.77 1013.55 1013.35 1013.19 1013.13 1013.15 1013.26 1013.44 1013.65 1013.86 1014.06 1014.21 1014.34 1014.45 1014.55 1014.68 1014.84 1015.05 1015.30 1015.59 1015.90 1016.23 1016.56 1016.88 1017.20 1017.50 1017.79 1018.07 1018.35 1018.63
1013.18 1013.31 1013.40 1013.44 1013.48 1013.53 1013.60 1013.68 1013.77 1013.83 1013.84 1013.78 1013.63 1013.43 1013.18 1012.94 1012.74 1012.61 1012.57 1012.62 1012.75 1012.92 1013.12 1013.32 1013.50 1013.66 1013.80 1013.93 1014.08 1014.25 1014.45 1014.69 1014.97 1015.28 1015.62 1015.96 1016.30 1016.64 1016.97 1017.29 1017.61 1017.92 1018.24
1013.01 1013.14 1013.23 1013.29 1013.34 1013.40 1013.47 1013.54 1013.61 1013.65 1013.64 1013.55 1013.38 1013.15 1012.87 1012.58 1012.31 1012.10 1011.97 1011.93 1011.98 1012.11 1012.28 1012.48 1012.69 1012.89 1013.08 1013.27 1013.45 1013.64 1013.85 1014.10 1014.38 1014.68 1015.01 1015.36 1015.72 1016.07 1016.42 1016.77 1017.12 1017.47 1017.82
1012.83 1012.96 1013.07 1013.16 1013.23 1013.31 1013.38 1013.45 1013.51 1013.53 1013.49 1013.38 1013.19 1012.93 1012.61 1012.26 1011.92 1011.61 1011.38 1011.23 1011.19 1011.24 1011.37 1011.56 1011.78 1012.03 1012.27 1012.51 1012.74 1012.97 1013.21 1013.46 1013.74 1014.05 1014.39 1014.74 1015.10 1015.47 1015.85 1016.22 1016.59 1016.96 1017.35
1012.59 1012.74 1012.87 1013.00 1013.11 1013.21 1013.30 1013.37 1013.41 1013.41 1013.36 1013.24 1013.04 1012.76 1012.41 1012.01 1011.60 1011.20 1010.85 1010.59 1010.43 1010.38 1010.44 1010.58 1010.80 1011.06 1011.34 1011.63 1011.91 1012.18 1012.46 1012.74 1013.03 1013.35 1013.69 1014.05 1014.43 1014.81 1015.20 1015.59 1015.98 1016.38 1016.78
1012.28 1012.44 1012.62 1012.79 1012.94 1013.07 1013.17 1013.25 1013.28 1013.28 1013.23 1013.11 1012.91 1012.64 1012.29 1011.86 1011.39 1010.91 1010.46 1010.07 1009.78 1009.60 1009.55 1009.62 1009.79 1010.03 1010.32 1010.63 1010.95 1011.26 1011.57 1011.88 1012.20 1012.54 1012.90 1013.28 1013.67 1014.07 1014.48 1014.88 1015.28 1015.69 1016.11
1011.91 1012.10 1012.31 1012.52 1012.72 1012.87 1012.99 1013.07 1013.11 1013.11 1013.07 1012.97 1012.81 1012.57 1012.24 1011.83 1011.33 1010.80 1010.25 1009.74 1009.30 1008.98 1008.79 1008.74 1008.82 1009.00 1009.25 1009.56 1009.88 1010.22 1010.56 1010.90 1011.26 1011.62 1012.01 1012.41 1012.83 1013.25 1013.67 1014.09 1014.51 1014.92 1015.34
1011.51 1011.73 1011.98 1012.23 1012.45 1012.63 1012.77 1012.85 1012.90 1012.91 1012.90 1012.85 1012.74 1012.57 1012.30 1011.92 1011.44 1010.87 1010.26 1009.64 1009.06 1008.58 1008.23 1008.03 1007.97 1008.04 1008.22 1008.48 1008.78 1009.12 1009.47 1009.84 1010.22 1010.62 1011.04 1011.48 1011.92 1012.37 1012.82 1013.25 1013.68 1014.10 1014.53
1011.13 1011.37 1011.65 1011.93 1012.18 1012.38 1012.52 1012.61 1012.67 1012.71 1012.73 1012.74 1012.71 1012.62 1012.44 1012.13 1011.70 1011.13 1010.48 1009.77 1009.08 1008.44 1007.92 1007.54 1007.33 1007.26 1007.32 1007.49 1007.74 1008.04 1008.38 1008.76 1009.16 1009.59 1010.05 1010.52 1011.00 1011.48 1011.96 1012.41 1012.85 1013.28 1013.71
1010.81 1011.06 1011.36 1011.66 1011.93 1012.14 1012.29 1012.39 1012.46 1012.52 1012.58 1012.66 1012.71 1012.72 1012.63 1012.42 1012.05 1011.52 1010.86 1010.10 1009.31 1008.55 1007.87 1007.32 1006.93 1006.70 1006.63 1006.68 1006.84 1007.08 1007.38 1007.75 1008.15 1008.60 1009.09 1009.59 1010.11 1010.63 1011.13 1011.61 1012.07 1012.50 1012.94
1010.53 1010.80 1011.11 1011.43 1011.72 1011.94 1012.09 1012.20 1012.28 1012.36 1012.47 1012.59 1012.73 1012.82 1012.83 1012.72 1012.43 1011.96 1011.32 1010.55 1009.70 1008.84 1008.04 1007.34 1006.79 1006.40 1006.17 1006.09 1006.14 1006.29 1006.54 1006.86 1007.25 1007.70 1008.20 1008.73 1009.28 1009.83 1010.36 1010.86 1011.34 1011.79 1012.22
1010.28 1010.56 1010.90 1011.24 1011.54 1011.78 1011.94 1012.05 1012.14 1012.24 1012.37 1012.54 1012.72 1012.89 1012.98 1012.95 1012.74 1012.34 1011.75 1010.99 1010.13 1009.22 1008.34 1007.54 1006.86 1006.33 1005.96 1005.74 1005.67 1005.71 1005.87 1006.13 1006.48 1006.91 1007.41 1007.95 1008.52 1009.09 1009.64 1010.17 1010.66 1011.12 1011.56
1010.03 1010.34 1010.70 1011.07 1011.39 1011.65 1011.83 1011.96 1012.05 1012.15 1012.29 1012.47 1012.67 1012.87 1013.02 1013.04 1012.91 1012.57 1012.05 1011.34 1010.51 1009.60 1008.69 1007.83 1007.06 1006.43 1005.94 1005.60 1005.40 1005.33 1005.38 1005.56 1005.85 1006.23 1006.70 1007.23 1007.80 1008.39 1008.96 1009.51 1010.01 1010.48 1010.93
1009.76 1010.11 1010.51 1010.91 1011.27 1011.56 1011.77 1011.90 1012.00 1012.09 1012.21 1012.38 1012.57 1012.76 1012.91 1012.97 1012.88 1012.61 1012.15 1011.51 1010.74 1009.88 1008.99 1008.12 1007.32 1006.62 1006.04 1005.59 1005.27 1005.09 1005.03 1005.11 1005.31 1005.63 1006.06 1006.56 1007.12 1007.70 1008.28 1008.84 1009.36 1009.84 1010.29
1009.49 1009.88 1010.33 1010.78 1011.19 1011.51 1011.75 1011.90 1011.99 1012.07 1012.15 1012.27 1012.41 1012.56 1012.68 1012.73 1012.66 1012.43 1012.03 1011.48 1010.79 1010.01 1009.18 1008.34 1007.54 1006.81 1006.17 1005.64 1005.22 1004.92 1004.76 1004.73 1004.84 1005.08 1005.45 1005.91 1006.44 1007.01 1007.59 1008.15 1008.68 1009.17 1009.63
1009.26 1009.71 1010.21 1010.71 1011.16 1011.53 1011.79 1011.95 1012.04 1012.09 1012.12 1012.17 1012.23 1012.31 1012.36 1012.37 1012.28 1012.07 1011.73 1011.25 1010.65 1009.96 1009.21 1008.44 1007.67 1006.94 1006.27 1005.67 1005.17 1004.78 1004.51 1004.38 1004.40 1004.56 1004.86 1005.27 1005.77 1006.31 1006.89 1007.45 1007.98 1008.48 1008.94
1009.12 1009.63 1010.19 1010.73 1011.22 1011.62 1011.91 1012.08 1012.15 1012.16 1012.14 1012.10 1012.08 1012.05 1012.03 1011.96 1011.84 1011.62 1011.31 1010.88 1010.36 1009.76 1009.09 1008.39 1007.67 1006.96 1006.27 1005.64 1005.08 1004.61 1004.25 1004.04 1003.97 1004.06 1004.30 1004.66 1005.12 1005.64 1006.20 1006.76 1007.29 1007.80 1008.27
1009.14 1009.70 1010.30 1010.87 1011.39 1011.81 1012.10 1012.27 1012.33 1012.30 1012.21 1012.10 1011.98 1011.86 1011.74 1011.59 1011.41 1011.17 1010.86 1010.47 1010.00 1009.46 1008.86 1008.22 1007.54 1006.85 1006.17 1005.51 1004.91 1004.39 1003.97 1003.69 1003.57 1003.60 1003.79 1004.11 1004.54 1005.04 1005.58 1006.13 1006.66 1007.16 1007.64
1009.34 1009.93 1010.55 1011.13 1011.66 1012.07 1012.36 1012.52 1012.55 1012.48 1012.35 1012.17 1011.97 1011.76 1011.55 1011.33 1011.08 1010.80 1010.47 1010.09 1009.65 1009.15 1008.59 1007.98 1007.33 1006.66 1005.97 1005.30 1004.68 1004.13 1003.68 1003.37 1003.21 1003.22 1003.38 1003.68 1004.08 1004.57 1005.09 1005.62 1006.14 1006.64 1007.11
1009.68 1010.29 1010.90 1011.48 1011.98 1012.37 1012.64 1012.78 1012.79 1012.69 1012.52 1012.29 1012.04 1011.77 1011.49 1011.20 1010.90 1010.57 1010.21 1009.81 1009.36 1008.86 1008.31 1007.72 1007.08 1006.41 1005.72 1005.05 1004.42 1003.87 1003.41 1003.10 1002.94 1002.94 1003.10 1003.40 1003.80 1004.27 1004.77 1005.29 1005.79 1006.27 1006.73
1010.10 1010.71 1011.30 1011.84 1012.30 1012.66 1012.89 1013.00 1012.99 1012.88 1012.69 1012.45 1012.17 1011.86 1011.55 1011.22 1010.87 1010.50 1010.10 1009.67 1009.19 1008.67 1008.10 1007.49 1006.84 1006.16 1005.47 1004.81 1004.18 1003.64 1003.21 1002.92 1002.79 1002.82 1003.00 1003.30 1003.71 1004.17 1004.67 1005.16 1005.63 1006.08 1006.51
1010.53 1011.11 1011.67 1012.16 1012.56 1012.87 1013.06 1013.14 1013.12 1013.01 1012.82 1012.59 1012.31 1012.01 1011.69 1011.34 1010.97 1010.57 1010.13 1009.66 1009.14 1008.58 1007.98 1007.33 1006.66 1005.97 1005.28 1004.62 1004.03 1003.52 1003.13 1002.88 1002.80 1002.87 1003.08 1003.42 1003.83 1004.29 1004.77 1005.24 1005.68 1006.09 1006.47
1010.87 1011.42 1011.93 1012.37 1012.72 1012.97 1013.12 1013.18 1013.15 1013.05 1012.89 1012.68 1012.44 1012.17 1011.86 1011.53 1011.15 1010.73 1010.27 1009.76 1009.21 1008.61 1007.96 1007.29 1006.59 1005.89 1005.20 1004.56 1004.00 1003.53 1003.20 1003.01 1002.98 1003.11 1003.37 1003.73 1004.16 1004.62 1005.09 1005.53 1005.92 1006.28 1006.60
1011.07 1011.60 1012.06 1012.45 1012.74 1012.95 1013.07 1013.11 1013.08 1013.00 1012.87 1012.71 1012.52 1012.29 1012.02 1011.72 1011.36 1010.94 1010.47 1009.94 1009.36 1008.73 1008.06 1007.37 1006.66 1005.96 1005.29 1004.68 1004.15 1003.74 1003.46 1003.34 1003.37 1003.54 1003.84 1004.23 1004.67 1005.14 1005.58 1005.99 1006.34 1006.65 1006.91
1011.14 1011.64 1012.07 1012.42 1012.68 1012.85 1012.95 1012.98 1012.96 1012.90 1012.81 1012.69 1012.54 1012.36 1012.14 1011.87 1011.54 1011.14 1010.68 1010.15 1009.57 1008.93 1008.26 1007.57 1006.88 1006.20 1005.56 1004.99 1004.52 1004.16 1003.94 1003.86 1003.94 1004.15 1004.48 1004.89 1005.34 1005.79 1006.22 1006.60 1006.92 1007.17 1007.37
1011.12 1011.61 1012.02 1012.35 1012.59 1012.74 1012.82 1012.85 1012.83 1012.79 1012.72 1012.64 1012.53 1012.39 1012.21 1011.97 1011.67 1011.30 1010.86 1010.36 1009.80 1009.19 1008.55 1007.90 1007.25 1006.62 1006.03 1005.52 1005.10 1004.79 1004.61 1004.58 1004.69 1004.92 1005.26 1005.67 1006.12 1006.56 1006.97 1007.33 1007.61 1007.82 1007.98
Thickness
5789 5789 5787 5786 5785 5784 5783 5782 5780 5780 5779 5778 5778 5778 5777 5776 5775 5774 5772 5770 5769 5767 5765 5764 5762 5761 5759 5758 5757 5755 5753 5751 5750 5749 5747 5746 5745 5745 5744 5742 5741 5739 5738
5790 5789 5787 5786 5785 5784 5783 5782 5781 5780 5779 5778 5777 5777 5777 5776 5775 5774 5772 5770 5768 5767 5765 5763 5762 5760 5759 5757 5756 5755 5753 5751 5750 5749 5747 5746 5745 5744 5743 5742 5740 5739 5737
5790 5789 5787 5785 5785 5784 5783 5782 5781 5780 5778 5778 5776 5776 5776 5775 5774 5773 5771 5769 5767 5766 5765 5763 5761 5760 5758 5757 5755 5754 5752 5751 5750 5748 5747 5746 5744 5743 5742 5741 5740 5738 5737
5790 5788 5786 5785 5785 5784 5783 5781 5780 5777 5776 5776 5775 5774 5775 5774 5774 5773 5771 5769 5767 5766 5765 5763 5761 5759 5757 5756 5755 5753 5752 5751 5749 5748 5746 5745 5744 5742 5741 5740 5739 5738 5737
5788 5786 5785 5784 5783 5782 5781 5780 5778 5776 5774 5773 5773 5773 5773 5773 5773 5772 5770 5769 5768 5766 5765 5763 5761 5759 5757 5756 5754 5753 5752 5750 5749 5748 5746 5745 5743 5742 5740 5739 5738 5737 5736
5787 5785 5784 5783 5782 5780 5779 5777 5776 5775 5773 5772 5772 5771 5772 5772 5772 5770 5770 5769 5768 5768 5767 5764 5761 5759 5757 5756 5754 5753 5751 5750 5748 5747 5746 5744 5743 5742 5740 5739 5738 5737 5736
5785 5784 5783 5782 5780 5779 5777 5776 5774 5772 5770 5771 5766 5764 5768 5771 5770 5770 5770 5769 5768 5768 5767 5765 5762 5760 5757 5756 5754 5753 5751 5749 5748 5746 5745 5743 5742 5741 5740 5739 5738 5737 5736
5785 5784 5781 5780 5779 5777 5775 5774 5772 5769 5768 5769 5763 5756 5754 5757 5764 5769 5768 5767 5767 5767 5766 5765 5763 5760 5758 5757 5755 5753 5751 5749 5747 5746 5744 5743 5742 5741 5740 5739 5738 5737 5735
5784 5782 5781 5779 5778 5777 5774 5772 5771 5767 5764 5766 5766 5758 5750 5747 5754 5761 5764 5765 5765 5764 5764 5764 5763 5760 5759 5758 5756 5754 5752 5750 5748 5746 5744 5743 5741 5740 5739 5739 5738 5736 5735
5783 5782 5780 5778 5776 5775 5773 5772 5771 5768 5765 5761 5763 5764 5761 5758 5750 5749 5757 5761 5762 5761 5761 5763 5763 5761 5760 5759 5757 5755 5752 5750 5747 5746 5744 5742 5741 5740 5739 5738 5737 5736 5735
5782 5781 5779 5777 5775 5774 5772 5771 5769 5767 5765 5761 5760 5760 5758 5758 5756 5749 5746 5751 5755 5758 5759 5760 5761 5761 5760 5758 5757 5754 5752 5749 5747 5745 5743 5742 5741 5740 5739 5738 5737 5736 5735
5780 5779 5777 5775 5773 5772 5770 5769 5768 5765 5763 5761 5760 5759 5756 5753 5751 5749 5746 5746 5748 5752 5757 5758 5758 5759 5759 5757 5756 5754 5751 5749 5746 5744 5743 5741 5740 5739 5738 5737 5736 5735 5733
5777 5776 5775 5773 5771 5770 5769 5767 5765 5763 5761 5759 5757 5757 5757 5755 5755 5752 5748 5746 5746 5750 5753 5755 5757 5757 5757 5755 5753 5752 5749 5746 5744 5743 5741 5740 5738 5737 5736 5735 5734 5733 5731
5777 5776 5773 5771 5769 5768 5766 5764 5763 5761 5759 5757 5756 5755 5754 5755 5755 5753 5749 5745 5741 5743 5746 5749 5753 5754 5753 5751 5750 5748 5746 5744 5742 5741 5739 5738 5736 5735 5734 5733 5731 5730 5729
5777 5774 5771 5769 5766 5764 5763 5761 5759 5757 5756 5755 5754 5753 5752 5752 5753 5752 5751 5748 5740 5734 5736 5743 5746 5750 5750 5749 5747 5744 5743 5742 5739 5738 5737 5735 5734 5732 5731 5730 5728 5727 5726
5773 5771 5768 5766 5764 5762 5760 5758 5756 5755 5753 5752 5751 5749 5749 5749 5749 5750 5748 5746 5743 5737 5734 5740 5742 5745 5746 5745 5743 5742 5740 5739 5737 5735 5734 5733 5731 5729 5728 5726 5725 5723 5722
5769 5766 5765 5762 5760 5758 5756 5754 5753 5752 5749 5748 5747 5746 5745 5745 5744 5744 5744 5742 5739 5736 5731 5735 5738 5740 5739 5738 5737 5737 5737 5736 5734 5733 5731 5730 5728 5726 5725 5723 5721 5719 5718
5764 5762 5761 5758 5756 5754 5752 5750 5748 5747 5746 5743 5743 5742 5741 5741 5739 5738 5737 5736 5735 5733 5730 5727 5730 5732 5733 5734 5733 5732 5733 5733 5733 5731 5729 5727 5725 5723 5721 5719 5717 5716 5714
5759 5758 5756 5753 5751 5750 5747 5745 5744 5743 5741 5740 5739 5738 5736 5735 5732 5732 5731 5730 5729 5729 5727 5725 5725 5728 5728 5729 5728 5727 5728 5727 5729 5728 5726 5724 5722 5719 5717 5715 5714 5712 5710
5755 5752 5751 5749 5747 5745 5742 5740 5738 5737 5737 5736 5735 5734 5732 5730 5728 5727 5726 5725 5724 5722 5722 5721 5720 5721 5722 5723 5721 5719 5718 5720 5721 5724 5722 5720 5717 5715 5713 5711 5710 5708 5706
5750 5747 5745 5743 5742 5740 5737 5734 5732 5732 5730 5729 5729 5728 5727 5726 5724 5722 5722 5720 5719 5717 5716 5715 5715 5715 5715 5713 5713 5715 5712 5714 5715 5717 5714 5714 5712 5709 5708 5707 5705 5704 5703
5744 5742 5739 5737 5736 5734 5731 5728 5727 5726 5724 5723 5722 5722 5721 5720 5719 5717 5717 5715 5713 5711 5710 5709 5709 5708 5708 5708 5709 5708 5706 5704 5704 5711 5708 5707 5708 5705 5705 5704 5703 5702 5700
5738 5735 5733 5731 5729 5726 5724 5722 5721 5720 5719 5718 5716 5715 5715 5716 5714 5712 5711 5710 5708 5707 5706 5705 5704 5704 5704 5705 5703 5702 5701 5699 5700 5705 5703 5700 5702 5701 5703 5703 5702 5699 5697
5732 5730 5728 5726 5723 5720 5717 5715 5714 5714 5714 5714 5712 5711 5709 5707 5708 5705 5704 5703 5702 5702 5702 5702 5701 5701 5702 5702 5700 5699 5697 5697 5699 5701 5700 5694 5696 5696 5699 5698 5697 5695 5692
5728 5726 5723 5721 5717 5714 5711 5709 5707 5707 5707 5707 5707 5706 5704 5702 5699 5698 5696 5694 5694 5694 5697 5698 5697 5696 5696 5696 5695 5692 5691 5688 5688 5691 5695 5691 5691 5691 5691 5691 5691 5689 5687
5723 5721 5718 5716 5713 5709 5705 5703 5700 5700 5699 5699 5699 5699 5696 5693 5691 5689 5688 5686 5685 5686 5688 5690 5689 5690 5689 5689 5689 5687 5686 5683 5682 5683 5688 5686 5685 5684 5681 5684 5684 5682 5679